Saipan, MP

12:41 PM ChST on August 17, 2017 (GMT +1000)
Saipan International

Weather History for PGSN - November, 2011

Change the Weather History Date:

Tuesday, November 1, 2011

  Actual Average Record
Temperature  
Mean Temperature 83 °F -  
Max Temperature 86 °F 84 °F 88 °F (2015)
Min Temperature 80 °F 75 °F 32 °F (1999)
Cooling Degree Days 18    
Growing Degree Days 33 (Base 50)    
Moisture  
Dew Point 74 °F    
Average Humidity 75    
Maximum Humidity 85    
Minimum Humidity 65    
Precipitation  
Precipitation 0.00 in - - ()
Sea Level Pressure  
Sea Level Pressure 29.88 in    
Wind  
Wind Speed 16 mph (ENE)    
Max Wind Speed 23 mph    
Max Gust Speed 28 mph    
Visibility 10 miles    
Events      
Averages and records for this station are not official NWS values.
T = Trace of Precipitation, MM = Missing Value Source: NWS Daily Summary

Daily Weather History Graph

Daily Weather History Graph

Search for Another Location

Airport or City:

Trip Planner

Search our weather history database for the weather conditions in past years. The results will help you decide how hot, cold, wet, or windy it might be!

Date:

Astronomy

Nov. 01, 2011 Rise Set
Actual Time 6:12 AM ChST 5:48 PM ChST
Civil Twilight 5:50 AM ChST 6:10 PM ChST
Nautical Twilight 5:25 AM ChST 6:35 PM ChST
Astronomical Twilight 4:59 AM ChST 7:01 PM ChST
Moon 11:18 AM ChST (11/1) 11:00 PM ChST (11/1)
Length of Visible Light 12h 19m
Length of Day
11h 35m
Waxing Crescent, 33% of the Moon is Illuminated
Nov 1
Waxing Crescent
Nov 3
First Quarter
Nov 11
Full
Nov 19
Last Quarter
Nov 25
New

Hourly Weather History & Observations

Time (ChST) Temp. Heat Index Dew Point Humidity Pressure Visibility Wind Dir Wind Speed Gust Speed Precip Events Conditions
12:54 AM 80.1 °F 85.1 °F 75.0 °F 85% 29.88 in 10.0 mi East 12.7 mph - N/A   Mostly Cloudy
1:54 AM 81.0 °F 86.7 °F 75.0 °F 82% 29.87 in 10.0 mi East 16.1 mph - N/A   Mostly Cloudy
2:54 AM 81.0 °F 86.7 °F 75.0 °F 82% 29.87 in 10.0 mi East 12.7 mph - N/A   Mostly Cloudy
3:54 AM 81.0 °F 87.3 °F 75.9 °F 85% 29.85 in 10.0 mi ENE 13.8 mph - N/A   Mostly Cloudy
4:54 AM 81.0 °F 86.7 °F 75.0 °F 82% 29.86 in 10.0 mi ENE 16.1 mph - N/A   Mostly Cloudy
5:54 AM 81.0 °F 86.2 °F 73.9 °F 79% 29.87 in 10.0 mi ENE 15.0 mph - N/A   Scattered Clouds
6:54 AM 81.0 °F 86.2 °F 73.9 °F 79% 29.89 in 10.0 mi ENE 16.1 mph 21.9 mph N/A   Mostly Cloudy
7:54 AM 82.9 °F 90.8 °F 75.9 °F 79% 29.91 in 10.0 mi ENE 17.3 mph - N/A   Scattered Clouds
8:54 AM 82.9 °F 88.8 °F 73.0 °F 72% 29.92 in 10.0 mi ENE 20.7 mph 25.3 mph 0.00 in   Scattered Clouds
9:54 AM 84.9 °F 91.4 °F 73.0 °F 67% 29.92 in 10.0 mi ENE 23.0 mph - N/A   Scattered Clouds
10:54 AM 86.0 °F 93.8 °F 73.9 °F 67% 29.91 in 10.0 mi East 21.9 mph 26.5 mph N/A   Scattered Clouds
11:54 AM 86.0 °F 93.8 °F 73.9 °F 67% 29.88 in 10.0 mi ENE 20.7 mph 26.5 mph N/A   Partly Cloudy
12:54 PM 86.0 °F 93.0 °F 73.0 °F 65% 29.86 in 10.0 mi East 20.7 mph - N/A   Partly Cloudy
1:54 PM 86.0 °F 93.0 °F 73.0 °F 65% 29.84 in 10.0 mi ENE 18.4 mph - N/A   Scattered Clouds
2:54 PM 84.9 °F 91.4 °F 73.0 °F 67% 29.83 in 10.0 mi NE 20.7 mph 24.2 mph N/A   Partly Cloudy
3:54 PM 84.0 °F 90.2 °F 73.0 °F 69% 29.84 in 10.0 mi ENE 18.4 mph 24.2 mph N/A   Mostly Cloudy
4:54 PM 82.9 °F 88.8 °F 73.0 °F 72% 29.85 in 10.0 mi ENE 16.1 mph - N/A   Mostly Cloudy
5:54 PM 81.0 °F 85.8 °F 73.0 °F 77% 29.86 in 10.0 mi NE 13.8 mph - N/A   Scattered Clouds
6:54 PM 81.0 °F 85.8 °F 73.0 °F 77% 29.87 in 10.0 mi NE 18.4 mph - N/A   Mostly Cloudy
7:54 PM 81.0 °F 85.2 °F 72.0 °F 74% 29.88 in 10.0 mi NE 17.3 mph - N/A   Mostly Cloudy
8:54 PM 82.0 °F 86.7 °F 72.0 °F 71% 29.89 in 10.0 mi NE 19.6 mph 25.3 mph N/A   Scattered Clouds
9:54 PM 82.0 °F 87.9 °F 73.9 °F 76% 29.89 in 10.0 mi ENE 18.4 mph 24.2 mph N/A   Mostly Cloudy
10:54 PM 81.0 °F 85.2 °F 72.0 °F 74% 29.88 in 10.0 mi ENE 17.3 mph 25.3 mph N/A   Scattered Clouds
11:54 PM 81.0 °F 85.8 °F 73.0 °F 77% 29.88 in 10.0 mi ENE 19.6 mph 27.6 mph N/A   Mostly Cloudy